FW1492 Weather Reports


Display with metric or nautical units.
time (UTC)temp
F
wind
direction
speed
MPH
gust
MPH
rain 1hr
in
rain 24hr
in
rain mn
in
humidity
%
barometer
mb
20260831210040 69 311 0.0 0.0 0.00 0.07 0.06 96 1019.9
20260831204641 68 312 0.0 1.0 0.00 0.07 0.06 96 1019.9
20260831203039 68 312 0.0 0.0 0.00 0.07 0.06 96 1020.0
20260831201537 68 312 0.0 0.0 0.01 0.07 0.06 96 1020.1
20260831200036 68 45 0.0 0.0 0.03 0.07 0.06 97 1020.0
20260831194536 67 45 0.0 0.0 0.06 0.07 0.06 95 1020.1
20260831193102 67 45 0.0 2.0 0.06 0.07 0.06 94 1020.7
20260831191534 68 127 0.0 0.0 0.05 0.06 0.05 93 1020.9
20260831190038 69 127 0.0 0.0 0.03 0.04 0.03 91 1021.1
20260831184533 70 127 0.0 0.0 0.00 0.01 0.00 88 1021.0
20260831183032 71 127 0.0 0.0 0.00 0.01 0.00 85 1020.9
20260831181545 72 127 0.0 0.0 0.00 0.01 0.00 84 1020.8
20260831180036 72 127 0.0 0.0 0.00 0.01 0.00 83 1020.9
20260831174529 73 127 0.0 0.0 0.00 0.01 0.00 82 1021.0
20260831173028 73 127 0.0 0.0 0.00 0.01 0.00 80 1021.2
20260831171527 74 127 0.0 0.0 0.00 0.01 0.00 78 1021.1
20260831170030 73 356 0.0 0.0 0.00 0.01 0.00 78 1021.0
20260831164522 73 356 0.0 0.0 0.00 0.01 0.00 81 1021.1
20260831163023 72 356 0.0 0.0 0.00 0.01 0.00 81 1021.1
20260831161535 72 95 0.0 2.0 0.00 0.01 0.00 81 1021.0
20260831160020 72 142 0.0 2.0 0.00 0.01 0.00 82 1021.0
20260831154518 72 134 0.0 1.0 0.00 0.01 0.00 83 1021.3
20260831153016 71 135 0.0 1.0 0.00 0.01 0.00 81 1021.5
20260831151514 71 307 0.0 2.0 0.00 0.01 0.00 83 1021.6
20260831150013 71 316 0.0 1.0 0.00 0.01 0.00 82 1021.6
20260831144514 71 310 0.0 2.0 0.00 0.01 0.00 83 1021.7
20260831143012 70 264 0.0 0.0 0.00 0.01 0.00 85 1021.6
20260831141508 69 144 0.0 1.0 0.00 0.01 0.00 85 1021.6
20260831140006 69 144 0.0 1.0 0.00 0.01 0.00 87 1021.6
20260831134503 68 143 0.0 0.0 0.00 0.01 0.00 89 1021.4
20260831133000 67 143 0.0 1.0 0.00 0.01 0.00 90 1021.4
20260831131603 67 301 0.0 0.0 0.00 0.01 0.00 92 1021.2
20260831130105 65 301 0.0 1.0 0.00 0.01 0.00 93 1021.2
20260831124556 65 298 0.0 0.0 0.00 0.01 0.00 95 1021.4
20260831123055 64 298 0.0 0.0 0.00 0.01 0.00 95 1021.5
20260831121555 64 298 0.0 0.0 0.00 0.01 0.00 95 1021.3
20260831120055 63 298 0.0 0.0 0.00 0.01 0.00 96 1021.4
20260831114553 63 298 0.0 0.0 0.00 0.01 0.00 95 1021.4
20260831113055 63 298 0.0 0.0 0.00 0.01 0.00 95 1021.1
20260831111553 63 298 0.0 0.0 0.00 0.01 0.00 95 1021.0
20260831110048 63 298 0.0 0.0 0.00 0.01 0.00 94 1020.5
20260831104550 63 317 0.0 1.0 0.00 0.01 0.00 94 1020.4
20260831103050 63 333 0.0 1.0 0.00 0.01 0.00 95 1020.6
20260831101546 62 345 0.0 2.0 0.00 0.01 0.00 95 1020.4
20260831100103 63 330 0.0 0.0 0.00 0.01 0.00 95 1020.5
20260831094548 63 330 0.0 0.0 0.00 0.01 0.00 95 1020.3
20260831093052 63 330 0.0 1.0 0.00 0.01 0.00 95 1020.3
20260831091541 63 330 0.0 0.0 0.00 0.01 0.00 95 1020.3
20260831090044 63 330 0.0 0.0 0.00 0.01 0.00 95 1020.2
20260831084540 63 330 0.0 1.0 0.00 0.01 0.00 95 1020.1
20260831083055 63 6 0.0 1.0 0.00 0.01 0.00 94 1020.2
20260831081550 63 45 0.0 1.0 0.00 0.01 0.00 94 1020.2
20260831080107 64 13 0.0 2.0 0.00 0.01 0.00 93 1020.3
20260831074537 64 3 0.0 2.0 0.00 0.01 0.00 93 1020.2
20260831073035 64 335 0.0 2.0 0.00 0.01 0.00 93 1019.9
20260831071543 64 340 0.0 4.0 0.00 0.01 0.00 94 1020.1
20260831070034 64 41 0.0 3.0 0.00 0.01 0.00 94 1020.3
20260831064531 64 356 0.0 2.0 0.00 0.01 0.00 94 1020.3
20260831063029 64 15 0.0 1.0 0.00 0.01 0.00 94 1020.5
20260831061528 65 348 0.0 4.0 0.00 0.01 0.00 93 1020.4
20260831060025 65 348 0.0 1.0 0.00 0.01 0.00 92 1020.3
20260831054525 65 350 0.0 2.0 0.00 0.01 0.00 91 1020.2
20260831053036 65 2 0.0 2.0 0.00 0.01 0.00 91 1020.4
20260831051527 65 285 1.0 3.0 0.00 0.01 0.00 91 1020.4
20260831050020 65 30 0.0 3.0 0.00 0.01 0.00 92 1020.3
20260831044530 66 18 0.0 3.0 0.00 0.01 0.00 92 1020.4
20260831043019 66 25 0.0 3.0 0.01 0.01 0.00 93 1020.5
20260831041524 66 341 0.0 2.0 0.01 0.01 0.00 94 1020.2
20260831040019 66 345 0.0 3.0 0.01 0.01 0.00 94 1020.2
20260831034511 66 338 0.0 3.0 0.01 0.01 0.01 94 1020.3
20260831033018 67 330 0.0 3.0 0.00 0.00 0.00 95 1020.3
20260831031511 67 41 0.0 2.0 0.00 0.00 0.00 95 1020.4
20260831030009 67 2 0.0 3.0 0.00 0.00 0.00 96 1020.6
20260831024511 67 357 0.0 2.0 0.00 0.00 0.00 96 1020.5
20260831023012 67 317 0.0 1.0 0.00 0.00 0.00 97 1020.6
20260831021514 68 2 0.0 1.0 0.00 0.00 0.00 97 1020.8
20260831020007 68 13 0.0 1.0 0.00 0.00 0.00 97 1020.8
20260831014507 68 339 0.0 2.0 0.00 0.00 0.00 97 1020.8
20260831013006 69 352 0.0 0.0 0.00 0.00 0.00 96 1020.8
20260831011506 69 339 0.0 1.0 0.00 0.00 0.00 96 1020.7
20260831010005 69 20 0.0 3.0 0.00 0.00 0.00 95 1020.5
20260831004504 70 335 0.0 4.0 0.00 0.00 0.00 94 1020.4
20260831003003 70 283 0.0 3.0 0.00 0.00 0.00 94 1019.9
20260831001503 70 7 0.0 2.0 0.00 0.00 0.00 94 1019.8
20260831000002 70 291 0.0 4.0 0.00 0.00 0.00 93 1019.6
20260830234501 71 286 0.0 1.0 0.00 0.00 0.00 93 1019.4
20260830233100 71 319 0.0 2.0 0.00 0.00 0.00 93 1019.3
20260830231607 70 283 0.0 1.0 0.00 0.00 0.00 93 1019.3
20260830224602 71 316 0.0 0.0 0.00 0.00 0.00 93 1019.5
20260830223059 71 45 0.0 0.0 0.00 0.00 0.00 93 1019.5
20260830221558 71 45 0.0 2.0 0.00 0.00 0.00 92 1019.4
20260830220059 71 294 0.0 1.0 0.00 0.00 0.00 92 1019.5
20260830214601 71 336 0.0 1.0 0.00 0.00 0.00 92 1019.5
20260830213106 71 26 0.0 0.0 0.00 0.00 0.00 91 1019.6
20260830211559 72 282 0.0 1.0 0.00 0.00 0.00 90 1019.3